Regional Weather Roundup
Issued by NWS Cleveland, OH

Home | Current Version | Previous Version | Text Only | Print | Product List | Glossary Off
Versions: 1 2 3 4 5 6 7 8 9 10 11 12 13 14 15 16 17 18 19 20 21 22 23 24 25 26 27 28 29 30 31 32 33 34 35 36 37 38 39 40 41 42 43 44 45 46 47 48 49 50

000
ASUS41 KCLE 312110
RWRCLE
OHIO REGIONAL WEATHER ROUNDUP
NATIONAL WEATHER SERVICE CLEVELAND, OH
500 PM EDT THU JUL 31 2014

NOTE: "FAIR" INDICATES FEW OR NO CLOUDS BELOW 12,000 FEET WITH NO
SIGNIFICANT WEATHER AND/OR OBSTRUCTIONS TO VISIBILITY.

OHZ001>008-015>018-024>027-034-035-043-044-312200-
   NORTHWEST OHIO

CITY           SKY/WX    TMP DP  RH WIND       PRES   REMARKS
DEFIANCE       PTSUNNY   82  57  42 VRB7      30.04S
FINDLAY        MOSUNNY   82  58  43 SW9       30.05S
TOLEDO EXPRESS MOSUNNY   81  55  40 SW10      30.03S
TOLEDO EXEC    MOSUNNY   83  56  39 SW12      30.04S
LIMA           MOSUNNY   80  60  50 W14G20    30.07S
$$

OHZ009>014-019>023-028>033-038-089-312200-
   NORTHEAST OHIO

CITY           SKY/WX    TMP DP  RH WIND       PRES   REMARKS
CLE-HOPKINS    MOSUNNY   77  53  43 SW14      30.09S
CLE-LAKEFRONT  SUNNY     76  52  43 N5        30.06S
CUY CO. ARPT   SUNNY     77  55  47 NW7       30.09S
LORAIN-ELYRIA  SUNNY     80  54  40 W6        30.07F
ASHTABULA      SUNNY     74  49  41 W9        30.09S
AKRON-CANTON   MOSUNNY   77  55  46 W8        30.09S
WOOSTER        MOSUNNY   78  56  46 W13       30.09S
MANSFIELD      SUNNY     76  54  46 SW7       30.09F
YOUNGSTOWN     MOSUNNY   77  53  43 W9        30.09S
$$

OHZ042-051>053-060>062-070>072-077>081-312200-
  SOUTHWEST OHIO

CITY           SKY/WX    TMP DP  RH WIND       PRES   REMARKS
CINC-COVINGTON MOSUNNY   82  58  43 W8        30.08F
CINC-LUNKEN    PTSUNNY   81  60  48 S9        30.07S
HAMILTON       SUNNY     83  60  45 NW7       30.08F
DAYTON         MOSUNNY   82  57  42 W12       30.09S
WRIGHT-PAT AFB SUNNY     81  60  48 W9        30.07F
DAYTON GENERAL MOSUNNY   79  59  50 NW9       30.07F
WILMINGTON     MOSUNNY   81  57  43 W7        30.08F
$$

OHZ036-037-039>041-045>050-054>059-063>069-073>076-082>088-312200-
  CENTRAL AND SOUTHEAST OHIO

CITY           SKY/WX    TMP DP  RH WIND       PRES   REMARKS
COLUMBUS       MOSUNNY   82  57  42 VRB5      30.07F
OSU AIRPORT    MOSUNNY   78  59  51 W7        30.08S
BOLTON FIELD   MOSUNNY   79  63  57 SW8       30.09S
RICKENBACK AFB MOSUNNY   82  55  38 W7        30.07F
NEWARK         MOSUNNY   80  60  50 SW7       30.08S
MARION         MOSUNNY   78  56  46 SW8       30.08S
LANCASTER      SUNNY     79  62  56 W7        30.08F
ZANESVILLE     MOSUNNY   80  61  52 W7        30.08F
NEW PHILLY     MOSUNNY   78  60  53 W8        30.09S
$$


USA.gov is the U.S. government's official web portal to all federal, state and local government web resources and services.